User: anonymous   Login
Location: Unspecified
(0.0000°N, 0.0000°E)
Time: 15:55:35
(UTC+00:00)
Language:

HO-68 - Orbit

View from above orbital plane
View from above orbital plane
View from above satellite
View from above satellite

Ground track
Ground track

The orbit data is extracted from the following two-line orbital elements,

1 36122U 09072B   14331.06754891 -.00000060  00000-0 -43517-4 0  1549
2 36122 100.2277 017.8185 0007387 220.2919 139.7653 13.16320724237864
Epoch (UTC): 27 November 2014 01:37:16
Eccentricity: 0.0007387
inclination: 100.2277°
perigee height: 1193 km
apogee height: 1204 km
right ascension of ascending node: 17.8185°
argument of perigee: 220.2919°
revolutions per day: 13.16320724
mean anomaly at epoch: 139.7653°
orbit number at epoch: 23786

The dashed part of the orbit path shows where the satellite is in the earth's shadow,  

DLR